Station CSPA2 - Cape Spencer, AK Image indicating link to RSS feed of recent meteorological observations for station CSPA2


Conditions at CSPA2 as of
(4:10 am AKDT)
1210 GMT on 07/20/2024:
     

Click on the graph icon in the table below to see a time series plot of the last five days of that observation.

5-day plot - Wind Direction Wind Direction (WDIR): E ( 80 deg true )
5-day plot - Wind Speed Wind Speed (WSPD): 19.0 kts
5-day plot - Wind Gust Wind Gust (GST): 21.0 kts
5-day plot - Atmospheric Pressure Atmospheric Pressure (PRES):30.13 in
5-day plot - Air Temperature Air Temperature (ATMP): 52.7 °F
5-day plot - Dew Point Dew Point (DEWP): 52.7 °F
5-day plot - Wind Chill Wind Chill (CHILL): 46.8 °F
5-day plot - Wind Speed at 10 Meters Wind Speed at 10 meters (WSPD10M): 19.4 kts
5-day plot - Wind Speed at 20 Meters Wind Speed at 20 meters (WSPD20M): 21.4 kts
5-day plot -  Wind Speed, Wind Gust and Atmospheric Pressure Combined plot of Wind Speed, Gust, and Air Pressure
Previous observations
TIME
(AKDT)
5-day plot - Wind Direction
WDIR
 
5-day plot - Wind Speed
WSPD
kts
5-day plot - Wind Gust
GST
kts
5-day plot - Wave Height
WVHT
ft
5-day plot - Dominant Wave Period
DPD
sec
5-day plot - Average Wave Period
APD
sec
5-day plot - Mean Wave Direction
MWD
 
5-day plot - Atmospheric Pressure
PRES
in
5-day plot - Pressure Tendency
PTDY
in
5-day plot - Air Temperature
ATMP
°F
5-day plot - Water Temperature
WTMP
°F
5-day plot - Dew Point
DEWP
°F
5-day plot - Salinity
SAL
psu
5-day plot - Visibility
VIS
nmi
5-day plot - Tide (above MLLW)
TIDE
ft
2024-07-20 03:10 amENE 14.0 18.1----30.13- 53.8- 53.8---
2024-07-20 02:10 amENE 12.0 14.0----30.14- 54.0- 54.0---
2024-07-20 01:10 am E 11.1 15.0----30.14- 54.5- 54.5---
2024-07-20 12:10 amENE 12.0 14.0----30.13- 53.6- 53.6---
2024-07-19 11:10 pm E 9.9 12.0----30.13- 53.4- 53.4---
2024-07-19 10:10 pm E 12.0 13.0----30.12- 52.5- 52.5---
2024-07-19 09:10 pm E 9.9 12.0----30.11- 52.2- 52.2---
2024-07-19 08:10 pm E 9.9 9.9----30.10- 54.3- 54.3---
2024-07-19 07:10 pmENE 14.0 15.0----30.10- 52.9- 52.9---
2024-07-19 06:10 pmENE 14.0 17.1----30.08- 54.7- 54.7---
2024-07-19 05:10 pm E 15.0 17.1----30.08- 53.8- 53.8---
2024-07-19 04:10 pm E 15.0 21.0----30.07- 54.5- 54.5---
2024-07-19 03:10 pm E 21.0 24.1----30.06- 53.6- 53.6---
2024-07-19 02:10 pm E 22.9 25.1----30.05- 52.9- 52.9---
2024-07-19 01:10 pm E 19.0 22.0----30.04- 53.1- 53.1---
2024-07-19 12:10 pm E 18.1 24.1----30.03- 53.2- 53.2---
2024-07-19 11:10 amENE 22.0 25.1----30.03- 53.1- 53.1---
2024-07-19 10:10 am E 19.0 22.9----30.01- 52.5- 52.5---
2024-07-19 09:10 amENE 15.9 19.0----30.02- 53.6- 53.6---
2024-07-19 08:10 am E 15.9 20.0----30.00- 53.6- 53.6---
2024-07-19 07:10 amENE 15.0 19.0----30.00- 53.6- 53.6---
2024-07-19 06:10 amENE 15.9 19.0----29.99- 54.1- 54.1---
2024-07-19 05:10 am E 19.0 24.1----29.98- 53.6- 53.6---
2024-07-19 04:10 am E 15.9 21.0----30.00- 55.9- 55.9---